Paynesville, MN

11:32 PM CDT on May 25, 2017 (GMT -0500)
Paynesville

Weather History for KPEX - September, 2012

Change the Weather History Date:

Saturday, September 8, 2012

  Actual Average (KLJF) Record (KLJF)
Temperature  
Mean Temperature 56 °F -  
Max Temperature 71 °F 77 °F 97 °F (1978)
Min Temperature 40 °F 52 °F 38 °F (1992)
Degree Days  
Heating Degree Days 10    
Growing Degree Days 6 (Base 50)    
Moisture  
Dew Point 42 °F    
Average Humidity 63    
Maximum Humidity 96    
Minimum Humidity 28    
Precipitation  
Precipitation 0.00 in - - ()
Sea Level Pressure  
Sea Level Pressure 29.99 in    
Wind  
Wind Speed 9 mph (WNW)    
Max Wind Speed 23 mph    
Max Gust Speed 33 mph    
Visibility 10 miles    
Events      
Averages and records for this station are not official NWS values.
T = Trace of Precipitation, MM = Missing Value Source: NWS Daily Summary

Daily Weather History Graph

Daily Weather History Graph

Search for Another Location

Airport or City:

Trip Planner

Search our weather history database for the weather conditions in past years. The results will help you decide how hot, cold, wet, or windy it might be!

Date:

Astronomy

Sep. 08, 2012 Rise Set
Actual Time 6:49 AM CDT 7:42 PM CDT
Civil Twilight 6:19 AM CDT 8:12 PM CDT
Nautical Twilight 5:43 AM CDT 8:48 PM CDT
Astronomical Twilight 5:06 AM CDT 9:25 PM CDT
Moon No Moon Rise 2:53 PM CDT (9/8)
Length of Visible Light 13h 52m
Length of Day
12h 52m
Waning Gibbous, 48% of the Moon is Illuminated
Sep 8
Waning Gibbous
Sep 15
New
Sep 22
First Quarter
Sep 29
Full
Oct 8
Last Quarter

Hourly Weather History & Observations

Time (CDT) Temp. Windchill Dew Point Humidity Pressure Visibility Wind Dir Wind Speed Gust Speed Precip Events Conditions
12:13 AM 43.7 °F 41.1 °F 41.0 °F 90% 30.07 in 10.0 mi West 4.6 mph - N/A   Clear
12:33 AM 45.0 °F 42.6 °F 41.9 °F 89% 30.06 in 10.0 mi West 4.6 mph - N/A   Clear
12:53 AM 43.5 °F 40.1 °F 40.8 °F 90% 30.06 in 10.0 mi West 5.8 mph - N/A   Clear
1:13 AM 43.5 °F 40.9 °F 41.2 °F 91% 30.06 in 10.0 mi West 4.6 mph - N/A   Clear
1:33 AM 43.7 °F 41.1 °F 41.2 °F 91% 30.06 in 10.0 mi West 4.6 mph - N/A   Clear
1:54 AM 42.8 °F 40.1 °F 40.5 °F 91% 30.05 in 10.0 mi West 4.6 mph - N/A   Clear
2:13 AM 42.4 °F - 40.6 °F 93% 30.06 in 10.0 mi Calm Calm - N/A   Clear
2:33 AM 43.2 °F - 41.0 °F 92% 30.06 in 10.0 mi Calm Calm - N/A   Clear
2:53 AM 42.4 °F 40.7 °F 40.3 °F 92% 30.05 in 10.0 mi WSW 3.5 mph - N/A   Clear
3:13 AM 42.6 °F 40.9 °F 41.2 °F 95% 30.05 in 10.0 mi WSW 3.5 mph - N/A   Clear
3:33 AM 42.4 °F - 40.8 °F 94% 30.05 in 10.0 mi Calm Calm - N/A   Clear
3:53 AM 42.8 °F 40.1 °F 41.7 °F 96% 30.04 in 10.0 mi WSW 4.6 mph - N/A   Clear
4:14 AM 41.5 °F 38.6 °F 40.5 °F 96% 30.05 in 10.0 mi West 4.6 mph - N/A   Clear
4:33 AM 41.4 °F 39.4 °F 40.3 °F 96% 30.04 in 10.0 mi WSW 3.5 mph - N/A   Clear
4:53 AM 41.5 °F 39.6 °F 40.5 °F 96% 30.03 in 10.0 mi WSW 3.5 mph - N/A   Clear
5:13 AM 40.3 °F 38.2 °F 39.2 °F 96% 30.02 in 10.0 mi WSW 3.5 mph - N/A   Clear
5:34 AM 40.6 °F 36.7 °F 39.6 °F 96% 30.02 in 10.0 mi West 5.8 mph - N/A   Clear
5:53 AM 41.4 °F 37.6 °F 40.3 °F 96% 30.02 in 10.0 mi West 5.8 mph - N/A   Clear
6:13 AM 41.5 °F 37.8 °F 40.1 °F 95% 30.02 in 10.0 mi West 5.8 mph - N/A   Clear
6:34 AM 41.4 °F 37.6 °F 39.7 °F 94% 30.01 in 10.0 mi West 5.8 mph - N/A   Clear
6:53 AM 42.3 °F - 41.0 °F 95% 30.01 in 10.0 mi Calm Calm - N/A   Clear
7:14 AM 42.4 °F 38.8 °F 41.0 °F 95% 30.01 in 10.0 mi WSW 5.8 mph - N/A   Clear
7:33 AM 44.4 °F 41.2 °F 43.0 °F 95% 30.01 in 10.0 mi WSW 5.8 mph - N/A   Clear
7:53 AM 47.8 °F - 45.1 °F 90% 30.00 in 10.0 mi WSW 5.8 mph - N/A   Clear
8:14 AM 51.1 °F - 45.7 °F 82% 29.99 in 10.0 mi WSW 8.1 mph - N/A   Clear
8:33 AM 52.9 °F - 45.5 °F 76% 29.99 in 10.0 mi WSW 9.2 mph - N/A   Clear
8:54 AM 54.5 °F - 45.7 °F 72% 29.98 in 10.0 mi WSW 10.4 mph - N/A   Clear
9:13 AM 57.2 °F - 45.5 °F 65% 29.97 in 10.0 mi WSW 13.8 mph - N/A   Clear
9:34 AM 59.7 °F - 45.3 °F 59% 29.96 in 10.0 mi WSW 10.4 mph - N/A   Clear
9:53 AM 60.8 °F - 44.4 °F 55% 29.95 in 10.0 mi WSW 12.7 mph - N/A   Clear
10:13 AM 63.7 °F - 42.8 °F 47% 29.94 in 10.0 mi West 15.0 mph 21.9 mph N/A   Clear
10:33 AM 64.0 °F - 42.3 °F 45% 29.93 in 10.0 mi West 15.0 mph 21.9 mph N/A   Clear
10:54 AM 64.8 °F - 42.3 °F 44% 29.92 in 10.0 mi West 17.3 mph 24.2 mph N/A   Clear
11:13 AM 66.2 °F - 42.1 °F 41% 29.91 in 10.0 mi WSW 16.1 mph - N/A   Scattered Clouds
11:34 AM 68.2 °F - 42.4 °F 39% 29.91 in 10.0 mi West 17.3 mph 21.9 mph N/A   Overcast
11:53 AM 69.1 °F - 43.3 °F 39% 29.90 in 10.0 mi West 15.0 mph - N/A   Mostly Cloudy
12:13 PM 69.6 °F - 43.7 °F 39% 29.90 in 10.0 mi West 16.1 mph 21.9 mph N/A   Mostly Cloudy
12:34 PM 71.2 °F - 41.0 °F 33% 29.89 in 10.0 mi West 15.0 mph 21.9 mph N/A   Mostly Cloudy
12:53 PM 70.9 °F - 40.5 °F 33% 29.89 in 10.0 mi West 17.3 mph 26.5 mph N/A   Mostly Cloudy
1:13 PM 70.9 °F - 41.2 °F 34% 29.89 in 10.0 mi WNW 20.7 mph 26.5 mph N/A   Scattered Clouds
1:34 PM 69.6 °F - 42.4 °F 37% 29.90 in 10.0 mi WNW 17.3 mph 23.0 mph N/A   Mostly Cloudy
1:54 PM 70.7 °F - 43.3 °F 37% 29.90 in 10.0 mi WNW 19.6 mph 27.6 mph N/A   Scattered Clouds
2:13 PM 70.9 °F - 44.4 °F 39% 29.90 in 10.0 mi NW 19.6 mph 27.6 mph N/A   Scattered Clouds
2:33 PM 71.4 °F - 42.3 °F 35% 29.90 in 10.0 mi NW 23.0 mph 29.9 mph N/A   Clear
2:53 PM 71.4 °F - 36.3 °F 28% 29.91 in 10.0 mi NW 20.7 mph 33.4 mph N/A   Clear
3:14 PM 70.9 °F - 36.3 °F 28% 29.91 in 10.0 mi NNW 19.6 mph 32.2 mph N/A   Clear
3:33 PM 70.3 °F - 37.6 °F 30% 29.91 in 10.0 mi NW 21.9 mph 29.9 mph N/A   Clear
3:53 PM 70.3 °F - 37.2 °F 30% 29.92 in 10.0 mi NW 21.9 mph 32.2 mph N/A   Scattered Clouds
4:13 PM 70.2 °F - 37.9 °F 31% 29.93 in 10.0 mi NNW 21.9 mph 29.9 mph N/A   Scattered Clouds
4:33 PM 68.9 °F - 38.5 °F 33% 29.94 in 10.0 mi NW 21.9 mph 33.4 mph N/A   Mostly Cloudy
4:53 PM 66.9 °F - 39.2 °F 36% 29.94 in 10.0 mi NW 19.6 mph 29.9 mph N/A   Mostly Cloudy
5:13 PM 66.7 °F - 39.6 °F 37% 29.96 in 10.0 mi NNW 23.0 mph 28.8 mph N/A   Mostly Cloudy
5:33 PM 65.8 °F - 40.3 °F 39% 29.97 in 10.0 mi NW 15.0 mph 24.2 mph N/A   Mostly Cloudy
5:53 PM 64.9 °F - 41.0 °F 42% 29.98 in 10.0 mi NW 13.8 mph 23.0 mph N/A   Overcast
6:14 PM 64.4 °F - 40.6 °F 42% 29.98 in 10.0 mi NNW 17.3 mph 24.2 mph N/A   Overcast
6:33 PM 63.9 °F - 41.5 °F 44% 29.99 in 10.0 mi NW 13.8 mph 21.9 mph N/A   Overcast
6:53 PM 63.5 °F - 42.3 °F 46% 30.00 in 10.0 mi NNW 11.5 mph 17.3 mph N/A   Overcast
7:14 PM 63.0 °F - 42.4 °F 47% 30.00 in 10.0 mi NNW 15.0 mph 23.0 mph N/A   Overcast
7:33 PM 62.6 °F - 42.8 °F 48% 30.01 in 10.0 mi NW 12.7 mph 19.6 mph N/A   Overcast
7:53 PM 62.1 °F - 42.8 °F 49% 30.02 in 10.0 mi NNW 16.1 mph 24.2 mph N/A   Overcast
8:14 PM 61.9 °F - 43.5 °F 51% 30.03 in 10.0 mi NNW 10.4 mph 19.6 mph N/A   Overcast
8:33 PM 61.3 °F - 43.3 °F 52% 30.04 in 10.0 mi NNW 13.8 mph 19.6 mph N/A   Overcast
8:53 PM 60.8 °F - 43.9 °F 54% 30.05 in 10.0 mi NNW 12.7 mph 18.4 mph N/A   Overcast
9:14 PM 60.6 °F - 44.6 °F 56% 30.06 in 10.0 mi North 12.7 mph 19.6 mph N/A   Overcast
9:33 PM 60.3 °F - 45.0 °F 57% 30.07 in 10.0 mi NNW 10.4 mph 18.4 mph N/A   Overcast
10:14 PM 59.5 °F - 45.3 °F 59% 30.08 in 10.0 mi NNW 5.8 mph 16.1 mph N/A   Overcast
10:33 PM 58.8 °F - 45.5 °F 61% 30.08 in 10.0 mi NNW 10.4 mph - N/A   Mostly Cloudy
10:54 PM 57.4 °F - 45.5 °F 65% 30.08 in 10.0 mi NNW 4.6 mph - N/A   Clear
11:13 PM 55.9 °F - 45.5 °F 68% 30.09 in 10.0 mi NW 3.5 mph - N/A   Clear
11:39 PM 54.5 °F - 45.9 °F 73% 30.09 in 10.0 mi Calm Calm - N/A   Clear
11:53 PM 53.6 °F - 46.4 °F 77% 30.09 in 10.0 mi NW 3.5 mph - N/A   Clear